sat.trackr.live / text

‹ back to catalog

STARLINK-34809

NORAD 65069 · 2025-165P

PAYLOAD ACTIVE UNKNOWN

§ Identity

Operator
Country
US
Launch date
2025-07-31
Launch site
AFWTR
Launch vehicle
Mass (kg)
RCS (m²)

Purposes: comms

External: N2YO · Heavens-Above · Gunter

§ Orbital elements

Epoch: 2026-05-25T03:32:33.963648Z

Period
95.64 min
Inclination
97.4497°
Eccentricity
0.0002195
Mean motion
15.05660715 rev/d
Perigee alt
548.0 km
Apogee alt
551.0 km
Semi-major
6,927.6 km
B*
4.5904e-4
RAAN
222.2022°
Arg perigee
158.5745°
Mean anomaly
201.5574°
Rev number
4,629

§ Raw data

STARLINK-348091 65069U 25165P   26145.14761532  .00006573  00000+0  45904-3 0  99972 65069  97.4497 222.2022 0002195 158.5745 201.5574 15.05660715 46293

JSON: /api/v1/satellites/65069 · /tle

For live sub-satellite position, see the globe view (requires WebGL).

§ Visibility from observer

Set your observer location to see the next 7 days of passes ≥ 10°. The values pass through the URL so the page stays shareable.

No JS? Fill the form by hand. The geolocation button needs JavaScript.